Location: Bright Sky Observatory
(40.7821°N, 74.2425°W)
Time: 19:09:40
(UTC-04:00)

Amateur Radio Satellites - All Passes

Search period start: 23 July 2016 18:39
Search period end: 24 July 2016 18:39
Location: Bright Sky Observatory, 40.7821°N, 74.2425°W

Satellite Date Start Highest point End Downlink Frequencies (MHz)
Time Altitude Azimuth
GOMX 1 23 Jul 18:49:05 18:53:13 74° 259° (W) 18:57:28 467.674
RS-15 23 Jul 19:00:01 19:09:50 29° 258° (WSW) 19:19:33 29.354- 29.394
CANX-2 23 Jul 19:01:00 19:03:46 17° 66° (ENE) 19:06:32 2200.000
Cubesat XI-IV 23 Jul 19:01:01 19:06:10 46° 261° (W) 19:11:21 437.490
DOVE 4 23 Jul 19:02:49 19:06:59 67° 75° (ENE) 19:11:22 437.250
BRITE-PL 23 Jul 19:05:09 19:08:18 20° 266° (W) 19:11:26 437.365/2234.400
CUTE 1.7 + AOD 2 23 Jul 19:14:47 19:17:58 21° 67° (ENE) 19:21:09 437.475
LilacSat-2 23 Jul 19:15:12 19:18:19 23° 265° (W) 19:21:29 437.200
STRAND 1 23 Jul 19:17:04 19:20:49 20° 93° (E) 19:24:31 437.568
CUTE-I 23 Jul 19:26:53 19:31:23 27° 265° (W) 19:35:55 437.470
NOAA 18 23 Jul 19:28:04 19:32:40 27° 265° (W) 19:37:18 137.9125
CUBESAT XI-V 23 Jul 19:28:09 19:31:32 21° 294° (WNW) 19:34:54 437.345
PCSat 23 Jul 19:32:36 19:36:51 24° 107° (ESE) 19:41:07 145.827
CUBEBUG 2 23 Jul 19:43:55 19:46:53 17° 64° (ENE) 19:49:55 437.445
CINEMA 3 23 Jul 19:44:13 19:48:31 53° 73° (ENE) 19:53:03 145.822/145.860
PHONESAT 2.4 23 Jul 19:44:56 19:47:56 49° 164° (SSE) 19:50:57 2401.200-2431.200
BEESAT 2 23 Jul 19:51:36 19:55:17 39° 116° (ESE) 19:59:01 435.950
BEESAT 3 23 Jul 19:53:31 19:57:26 83° 121° (ESE) 20:01:23 437.485
SEEDS 23 Jul 20:00:32 20:04:35 46° 73° (ENE) 20:08:39 437.485
HO-68 23 Jul 20:01:13 20:08:24 83° 72° (ENE) 20:15:39 435.675
YUBILEINY 23 Jul 20:14:32 20:21:41 26° 67° (ENE) 20:28:45 435.215
COMPASS 1 23 Jul 20:19:59 20:24:03 53° 74° (ENE) 20:28:08 437.405
Oscar 11 23 Jul 20:29:40 20:33:04 23° 68° (ENE) 20:36:28 145.826/435.025
CANX-2 23 Jul 20:35:12 20:39:17 43° 262° (W) 20:43:23 2200.000
Cosmos 2504 23 Jul 20:44:03 20:46:15 11° 55° (NE) 20:48:26 435.465 / 435.565
O/OREOS (USA 219) 23 Jul 20:45:13 20:48:24 19° 101° (E) 20:51:35 437.305
CUTE 1.7 + AOD 2 23 Jul 20:49:41 20:53:34 34° 263° (W) 20:57:30 437.475
AAUSAT CUBESAT 2 23 Jul 20:52:18 20:56:29 82° 260° (W) 21:00:39 437.432
STRAND 1 23 Jul 20:55:19 21:00:12 47° 289° (WNW) 21:05:04 437.568
PRISM 23 Jul 20:58:27 21:01:53 25° 96° (E) 21:05:18 437.425
UWE-3 23 Jul 21:04:57 21:09:28 81° 76° (ENE) 21:14:07 435.000/436.395/437.385
M-CUBED/EXP-1 PRIME 23 Jul 21:13:07 21:16:29 36° 65° (ENE) 21:20:07 437.505
PCSat 23 Jul 21:14:41 21:19:55 48° 305° (NW) 21:25:10 145.827
ZACube-1 23 Jul 21:14:48 21:19:16 68° 74° (ENE) 21:23:49 437.345
FUNcube-1 23 Jul 21:16:11 21:20:37 66° 75° (ENE) 21:25:09 145.935
CUBEBUG 2 23 Jul 21:18:42 21:23:04 49° 261° (W) 21:27:36 437.445
AIST 2 23 Jul 21:19:28 21:22:04 16° 110° (ESE) 21:24:40 435.215
PHONESAT 2.4 23 Jul 21:21:17 21:24:23 88° 190° (S) 21:27:28 2401.200-2431.200
CINEMA 3 23 Jul 21:23:42 21:26:03 14° 271° (W) 21:28:28 145.822/145.860
HUMSAT D 23 Jul 21:30:04 21:33:22 22° 68° (ENE) 21:36:42 437.325/437.525
BEESAT 2 23 Jul 21:30:16 21:33:16 20° 314° (NW) 21:36:17 435.950
BEESAT 3 23 Jul 21:34:03 21:35:39 12° 320° (NW) 21:37:16 437.485
Cosmos 2491 23 Jul 21:35:09 21:43:06 41° 87° (E) 21:51:02 435.465 / 435.565
SEEDS 23 Jul 21:38:08 21:40:31 15° 269° (W) 21:42:54 437.485
AUBIESAT-1 23 Jul 21:42:25 21:46:04 67° 69° (ENE) 21:50:03 437.475
DELFI C3 23 Jul 21:48:57 21:52:56 73° 75° (ENE) 21:56:54 145.870
HO-68 23 Jul 21:52:25 21:56:53 17° 270° (W) 22:01:23 435.675
COMPASS 1 23 Jul 21:58:08 21:59:55 12° 269° (W) 22:01:42 437.405
Oscar 11 23 Jul 22:05:07 22:09:01 32° 263° (W) 22:12:56 145.826/435.025
YUBILEINY 23 Jul 22:10:27 22:19:13 69° 267° (W) 22:27:55 435.215
TIGRISAT 23 Jul 22:13:39 22:16:21 15° 91° (E) 22:19:00 435.000
AO-85 23 Jul 22:16:13 22:17:49 12° 35° (NE) 22:19:23 145.980
O/OREOS (USA 219) 23 Jul 22:23:19 22:27:29 38° 298° (WNW) 22:31:41 437.305
UNISAT 6 23 Jul 22:27:51 22:31:33 23° 94° (E) 22:35:10 437.425
ISS 23 Jul 22:32:53 22:35:54 36° 137° (SE) 22:38:55 145.825
Cosmos 2504 23 Jul 22:33:30 22:41:43 62° 78° (ENE) 22:49:18 435.465 / 435.565
PRISM 23 Jul 22:33:45 22:37:06 25° 292° (WNW) 22:40:26 437.425
ESTCUBE 1 23 Jul 22:38:24 22:41:53 22° 67° (ENE) 22:45:22 437.505/2401.250
50 SAT 23 Jul 22:44:20 22:45:53 12° 65° (ENE) 22:47:26 437.505
M-CUBED/EXP-1 PRIME 23 Jul 22:49:02 22:51:14 15° 264° (W) 22:53:33 437.505
ZACube-1 23 Jul 22:54:35 22:56:01 11° 271° (W) 22:57:27 437.345
FUNcube-1 23 Jul 22:55:43 22:57:18 12° 271° (W) 22:58:55 145.935
AIST 2 23 Jul 22:56:14 23:00:11 45° 307° (NW) 23:04:11 435.215
UKube-1 23 Jul 22:57:07 22:58:46 12° 62° (ENE) 23:00:26 .
PHONESAT 2.4 23 Jul 22:57:50 23:00:50 49° 197° (SSW) 23:03:49 2401.200-2431.200
HUMSAT D 23 Jul 23:04:55 23:08:47 32° 263° (W) 23:12:42 437.325/437.525
ANTELSAT 23 Jul 23:05:50 23:10:28 57° 100° (E) 23:14:58 437.575/2403.000
VELOX 1 23 Jul 23:11:34 23:15:19 29° 69° (ENE) 23:19:06 145.980
QB50P1 23 Jul 23:16:12 23:16:36 10° 89° (E) 23:17:00 145.935-145.965
POPSAT HIP 1 23 Jul 23:21:08 23:22:45 12° 90° (E) 23:24:21 437.405
CUBEBUG 1 23 Jul 23:22:52 23:26:54 42° 72° (ENE) 23:31:00 437.445
Cosmos 2491 23 Jul 23:31:42 23:39:50 43° 286° (WNW) 23:48:02 435.465 / 435.565
SPROUT 23 Jul 23:36:09 23:39:34 24° 68° (ENE) 23:42:59 437.525
QB50P2 23 Jul 23:39:36 23:42:53 21° 94° (E) 23:46:09 145.880/145.840
POLYITAN 1 23 Jul 23:42:13 23:45:33 22° 94° (E) 23:48:51 437.675
TIGRISAT 23 Jul 23:48:48 23:53:21 53° 287° (WNW) 23:57:48 435.000
AO-85 23 Jul 23:54:45 23:59:11 75° 57° (ENE) 00:03:14 145.980
AISAT 23 Jul 23:55:12 23:59:34 89° 241° (WSW) 00:04:00 437.250
UNISAT 6 24 Jul 00:04:05 00:08:19 35° 290° (WNW) 00:12:29 437.425
JAS-2 24 Jul 00:05:35 00:07:43 12° 91° (E) 00:09:53 435.910
DX 1 24 Jul 00:08:49 00:13:07 89° 227° (SW) 00:17:29 434.975-435.025
ISS 24 Jul 00:09:27 00:12:22 29° 334° (NNW) 00:15:17 145.825
YUBILEINY 24 Jul 00:11:31 00:14:12 12° 287° (WNW) 00:16:54 435.215
ESTCUBE 1 24 Jul 00:14:23 00:18:29 34° 263° (W) 00:22:37 437.505/2401.250
50 SAT 24 Jul 00:15:36 00:19:07 44° 260° (W) 00:22:40 437.505
Cosmos 2504 24 Jul 00:27:59 00:34:19 26° 279° (W) 00:40:21 435.465 / 435.565
NANOSAT C BR1 24 Jul 00:28:24 00:32:41 68° 102° (ESE) 00:36:55 145.865
UKube-1 24 Jul 00:30:00 00:34:16 66° 259° (WSW) 00:38:33 .
DUCHIFAT 1 24 Jul 00:34:38 00:38:55 75° 103° (ESE) 00:43:10 145.980
PHONESAT 2.4 24 Jul 00:35:24 00:36:54 13° 212° (SSW) 00:38:24 2401.200-2431.200
ANTELSAT 24 Jul 00:43:57 00:46:39 15° 297° (WNW) 00:49:20 437.575/2403.000
TISAT 1 24 Jul 00:45:27 00:49:11 32° 70° (ENE) 00:52:57 437.305
VELOX 1 24 Jul 00:48:08 00:51:45 25° 264° (W) 00:55:23 145.980
QB50P1 24 Jul 00:48:32 00:52:49 67° 285° (WNW) 00:57:04 145.935-145.965
POPSAT HIP 1 24 Jul 00:54:39 00:58:53 58° 287° (WNW) 01:03:05 437.405
CUBEBUG 1 24 Jul 01:00:39 01:03:23 16° 267° (W) 01:06:09 437.445
BUGSAT 1 24 Jul 01:05:21 01:09:36 73° 101° (E) 01:13:51 437.445
AIST 1 24 Jul 01:06:04 01:10:22 62° 80° (E) 01:14:40
SPROUT 24 Jul 01:11:39 01:15:22 29° 264° (W) 01:19:08 437.525
ITUPSAT 1 24 Jul 01:14:31 01:17:14 15° 62° (ENE) 01:19:58 437.325
QB50P2 24 Jul 01:14:53 01:18:45 32° 290° (WNW) 01:22:33 145.880/145.840
POLYITAN 1 24 Jul 01:17:33 01:21:23 32° 290° (WNW) 01:25:12 437.675
Oscar 19 24 Jul 01:46:08 01:50:43 31° 96° (E) 01:55:17 437.125/150
Cosmos 2499 24 Jul 01:46:31 01:50:27 14° 59° (ENE) 01:54:14 435.465 / 435.565
ISS 24 Jul 01:47:59 01:49:36 13° 354° (N) 01:51:12 145.825
JAS-2 24 Jul 01:48:06 01:53:19 75° 285° (WNW) 01:58:54 435.910
NANOSAT C BR1 24 Jul 02:06:23 02:07:50 12° 298° (WNW) 02:09:16 145.865
SWISSCUBE 24 Jul 02:07:26 02:12:07 55° 72° (ENE) 02:16:49 437.505
DUCHIFAT 1 24 Jul 02:13:09 02:13:58 10° 299° (WNW) 02:14:47 145.980
GONETS M04 24 Jul 02:17:30 02:25:30 37° 72° (ENE) 02:33:27
TISAT 1 24 Jul 02:21:46 02:24:53 20° 266° (W) 02:28:02 437.305
BEESAT 24 Jul 02:29:08 02:33:56 83° 76° (ENE) 02:38:45 436.000
Gurwin Techsat 1B 24 Jul 02:35:37 02:40:38 41° 98° (E) 02:45:38 435.225
BUGSAT 1 24 Jul 02:43:22 02:44:23 11° 298° (WNW) 02:45:23 437.445
AIST 1 24 Jul 02:46:34 02:47:22 10° 277° (W) 02:48:10
ITUPSAT 1 24 Jul 02:49:47 02:54:33 63° 259° (W) 02:59:20 437.325
ITAMSAT 1 24 Jul 03:12:14 03:16:45 29° 96° (E) 03:21:14 435.822/435.867
ISS 24 Jul 03:24:58 03:27:04 16° 14° (NNE) 03:29:10 145.825
Oscar 19 24 Jul 03:25:27 03:29:58 31° 293° (WNW) 03:34:29 437.125/150
KKS-1 24 Jul 03:36:18 03:40:33 47° 72° (ENE) 03:44:50 437.445
Cosmos 2499 24 Jul 03:37:08 03:45:10 78° 81° (E) 03:52:32 435.465 / 435.565
MOZHAYETS 4 24 Jul 03:43:21 03:47:54 58° 74° (ENE) 03:52:28
SWISSCUBE 24 Jul 03:47:26 03:50:14 15° 268° (W) 03:53:03 437.505
DANDE 24 Jul 03:58:05 04:02:01 18° 93° (E) 04:05:23 436.750
AO-7 24 Jul 04:07:48 04:15:39 43° 100° (E) 04:23:25 29.400- 29.500
BEESAT 2 24 Jul 04:09:55 04:13:14 24° 48° (NE) 04:16:31 435.950
CUSAT 1 24 Jul 04:10:03 04:14:36 49° 98° (E) 04:18:08 437.405
BEESAT 3 24 Jul 04:11:01 04:14:49 42° 53° (NE) 04:18:35 437.485
GONETS M04 24 Jul 04:14:09 04:22:29 49° 271° (W) 04:30:49
Gurwin Techsat 1B 24 Jul 04:16:02 04:20:21 26° 295° (WNW) 04:24:38 435.225
PCSat 24 Jul 04:19:59 04:24:08 22° 46° (NE) 04:28:14 145.827
STARS 24 Jul 04:25:01 04:29:23 81° 75° (ENE) 04:33:49 437.465
ITAMSAT 1 24 Jul 04:51:34 04:56:13 34° 292° (WNW) 05:00:49 435.822/435.867
HORYU 2 24 Jul 04:53:00 04:55:37 15° 92° (E) 04:58:13 437.375
CUBESAT XI-V 24 Jul 04:53:03 04:57:18 38° 71° (ENE) 05:01:33 437.345
ISS 24 Jul 05:00:49 05:04:03 56° 33° (NNE) 05:07:15 145.825
KKS-1 24 Jul 05:14:43 05:17:22 15° 268° (W) 05:20:02 437.445
MOZHAYETS 4 24 Jul 05:23:05 05:25:25 14° 269° (W) 05:27:46
BRITE-PL 24 Jul 05:31:50 05:33:12 11° 90° (E) 05:34:36 437.365/2234.400
Cosmos 2499 24 Jul 05:32:10 05:37:09 19° 282° (WNW) 05:41:55 435.465 / 435.565
DANDE 24 Jul 05:38:39 05:44:42 53° 281° (W) 05:49:16 436.750
AIST 2 24 Jul 05:40:30 05:42:41 14° 41° (NE) 05:44:52 435.215
BEESAT 2 24 Jul 05:47:31 05:51:05 31° 245° (WSW) 05:54:37 435.950
BEESAT 3 24 Jul 05:49:39 05:52:09 16° 249° (WSW) 05:54:39 437.485
CUSAT 1 24 Jul 05:55:34 05:56:32 11° 286° (WNW) 05:57:25 437.405
AO-7 24 Jul 06:00:38 06:08:23 45° 298° (WNW) 06:16:07 29.400- 29.500
PCSat 24 Jul 06:02:36 06:07:59 63° 245° (WSW) 06:13:18 145.827
CUTE-I 24 Jul 06:04:55 06:07:55 15° 91° (E) 06:10:54 437.470
NOAA 18 24 Jul 06:10:05 06:13:38 17° 92° (E) 06:17:11 137.9125
HORYU 2 24 Jul 06:28:06 06:32:27 49° 288° (WNW) 06:36:45 437.375
CUBESAT XI-V 24 Jul 06:31:18 06:34:47 21° 267° (W) 06:38:16 437.345
STRAND 1 24 Jul 06:32:28 06:36:52 29° 67° (ENE) 06:41:16 437.568
NOAA 15 24 Jul 06:35:30 06:40:25 39° 98° (E) 06:45:19 137.62
ISS 24 Jul 06:38:07 06:40:10 16° 229° (SW) 06:42:13 145.825
LilacSat-2 24 Jul 06:48:06 06:51:42 36° 97° (E) 06:55:16 437.200
GOMX 1 24 Jul 06:50:02 06:54:34 34° 97° (E) 06:59:20 467.674
O/OREOS (USA 219) 24 Jul 06:54:02 06:58:15 37° 62° (ENE) 07:02:27 437.305
DOVE 4 24 Jul 07:01:44 07:05:39 22° 93° (E) 07:09:40 437.250
BRITE-PL 24 Jul 07:07:21 07:12:03 77° 284° (WNW) 07:17:09 437.365/2234.400
RS-15 24 Jul 07:08:41 07:19:33 53° 111° (ESE) 07:30:58 29.354- 29.394
AIST 2 24 Jul 07:17:31 07:21:42 78° 239° (WSW) 07:25:51 435.215
Cubesat XI-IV 24 Jul 07:18:12 07:23:35 73° 103° (ESE) 07:28:54 437.490
HO-68 24 Jul 07:31:30 07:35:23 15° 89° (E) 07:39:14 435.675
CINEMA 3 24 Jul 07:40:12 07:43:09 15° 90° (E) 07:46:06 145.822/145.860
CUTE-I 24 Jul 07:43:07 07:48:26 67° 287° (WNW) 07:53:42 437.470
Cosmos 2491 24 Jul 07:46:09 07:52:12 20° 63° (ENE) 07:58:13 435.465 / 435.565
PRISM 24 Jul 07:48:11 07:51:04 19° 66° (ENE) 07:53:56 437.425
NOAA 18 24 Jul 07:49:13 07:54:43 63° 288° (WNW) 08:00:10 137.9125
STRAND 1 24 Jul 08:11:16 08:15:55 34° 263° (W) 08:20:35 437.568
NOAA 15 24 Jul 08:15:41 08:19:59 26° 295° (WNW) 08:24:18 137.62
CANX-2 24 Jul 08:20:31 08:24:18 31° 96° (E) 08:28:02 2200.000
LilacSat-2 24 Jul 08:23:16 08:25:42 16° 294° (WNW) 08:28:08 437.200
GOMX 1 24 Jul 08:28:20 08:32:31 28° 291° (WNW) 08:36:56 467.674
O/OREOS (USA 219) 24 Jul 08:34:00 08:37:23 21° 259° (WSW) 08:40:47 437.305
SO-50 24 Jul 08:34:03 08:38:19 31° 114° (ESE) 08:42:36 436.795
CUTE 1.7 + AOD 2 24 Jul 08:34:31 08:38:29 39° 98° (E) 08:42:25 437.475
AAUSAT CUBESAT 2 24 Jul 08:36:05 08:38:32 15° 92° (E) 08:41:00 437.432
DOVE 4 24 Jul 08:38:39 08:43:28 45° 288° (WNW) 08:48:27 437.250
UWE-3 24 Jul 08:56:04 08:59:11 18° 92° (E) 09:02:15 435.000/436.395/437.385
Cubesat XI-IV 24 Jul 08:59:57 09:03:01 16° 300° (WNW) 09:06:03 437.490
ZACube-1 24 Jul 09:05:12 09:07:32 14° 90° (E) 09:09:50 437.345
FUNcube-1 24 Jul 09:06:24 09:08:32 13° 90° (E) 09:10:39 145.935
CUBEBUG 2 24 Jul 09:09:49 09:14:14 37° 97° (E) 09:18:31 437.445
TIGRISAT 24 Jul 09:12:33 09:14:58 14° 62° (ENE) 09:17:24 435.000
CINEMA 3 24 Jul 09:15:41 09:20:38 61° 286° (WNW) 09:25:34 145.822/145.860
YUBILEINY 24 Jul 09:15:48 09:22:59 30° 83° (E) 09:30:13 435.215
HO-68 24 Jul 09:16:44 09:23:59 89° 105° (ESE) 09:31:11 435.675
SEEDS 24 Jul 09:20:00 09:24:11 86° 288° (WNW) 09:28:21 437.485
RS-15 24 Jul 09:20:58 09:32:07 51° 315° (NW) 09:43:54 29.354- 29.394
PRISM 24 Jul 09:22:24 09:26:08 34° 262° (W) 09:29:52 437.425
UNISAT 6 24 Jul 09:26:35 09:29:59 21° 65° (ENE) 09:33:25 437.425
COMPASS 1 24 Jul 09:38:20 09:42:28 76° 283° (WNW) 09:46:35 437.405
Cosmos 2491 24 Jul 09:41:25 09:50:13 87° 265° (W) 09:59:00 435.465 / 435.565
Oscar 11 24 Jul 09:52:04 09:56:14 45° 99° (E) 10:00:20 145.826/435.025
CANX-2 24 Jul 09:56:45 09:59:58 22° 292° (WNW) 10:03:10 2200.000
ANTELSAT 24 Jul 10:03:58 10:08:22 48° 72° (ENE) 10:12:53 437.575/2403.000
AAUSAT CUBESAT 2 24 Jul 10:10:21 10:14:13 40° 288° (WNW) 10:18:03 437.432
CUTE 1.7 + AOD 2 24 Jul 10:11:11 10:14:01 18° 294° (WNW) 10:16:50 437.475
SO-50 24 Jul 10:14:16 10:18:44 35° 311° (NW) 10:23:11 436.795
M-CUBED/EXP-1 PRIME 24 Jul 10:26:06 10:30:21 34° 102° (ESE) 10:34:38 437.505
UWE-3 24 Jul 10:31:26 10:35:52 45° 288° (WNW) 10:40:11 435.000/436.395/437.385
QB50P2 24 Jul 10:32:40 10:35:18 16° 65° (ENE) 10:37:59 145.880/145.840
POLYITAN 1 24 Jul 10:35:14 10:37:57 17° 65° (ENE) 10:40:40 437.675
ZACube-1 24 Jul 10:39:43 10:44:10 54° 287° (WNW) 10:48:30 437.345
FUNcube-1 24 Jul 10:40:43 10:45:09 57° 287° (WNW) 10:49:29 145.935
TIGRISAT 24 Jul 10:46:32 10:51:05 64° 259° (W) 10:55:44 435.000
CUBEBUG 2 24 Jul 10:46:53 10:50:36 23° 293° (WNW) 10:54:16 437.445
HUMSAT D 24 Jul 10:48:18 10:52:16 38° 98° (E) 10:56:09 437.325/437.525
AUBIESAT-1 24 Jul 10:55:00 10:59:34 56° 105° (ESE) 11:04:07 437.475
DELFI C3 24 Jul 11:01:30 11:05:24 63° 285° (WNW) 11:09:16 145.870
UNISAT 6 24 Jul 11:02:03 11:06:22 41° 262° (W) 11:10:49 437.425
HO-68 24 Jul 11:06:06 11:10:45 19° 305° (NW) 11:15:25 435.675
Cosmos 2504 24 Jul 11:09:36 11:18:05 54° 90° (E) 11:26:38 435.465 / 435.565
YUBILEINY 24 Jul 11:10:34 11:19:10 59° 282° (WNW) 11:27:54 435.215
NANOSAT C BR1 24 Jul 11:20:03 11:24:05 46° 73° (ENE) 11:28:10 145.865
DUCHIFAT 1 24 Jul 11:25:57 11:30:02 51° 73° (ENE) 11:34:10 145.980
Oscar 11 24 Jul 11:29:16 11:31:59 17° 295° (WNW) 11:34:41 145.826/435.025
RS-15 24 Jul 11:39:30 11:48:34 24° 347° (NNW) 11:57:53 29.354- 29.394
QB50P1 24 Jul 11:40:15 11:44:29 85° 77° (ENE) 11:48:46 145.935-145.965
Cosmos 2491 24 Jul 11:40:47 11:45:41 17° 283° (WNW) 11:50:36 435.465 / 435.565
ANTELSAT 24 Jul 11:42:23 11:45:20 17° 269° (W) 11:48:20 437.575/2403.000
50 SAT 24 Jul 11:45:41 11:47:37 14° 93° (E) 11:49:32 437.505
POPSAT HIP 1 24 Jul 11:46:23 11:50:37 83° 259° (W) 11:54:54 437.405
AISAT 24 Jul 11:46:34 11:49:33 18° 93° (E) 11:52:33 437.250
BUGSAT 1 24 Jul 11:54:41 11:58:34 46° 73° (ENE) 12:02:32 437.445
DX 1 24 Jul 11:58:24 12:01:06 16° 93° (E) 12:03:46 434.975-435.025
JAS-2 24 Jul 11:59:54 12:05:45 45° 71° (ENE) 12:11:02 435.910
M-CUBED/EXP-1 PRIME 24 Jul 12:00:47 12:04:42 27° 297° (WNW) 12:08:39 437.505
ESTCUBE 1 24 Jul 12:06:35 12:10:56 48° 99° (E) 12:15:16 437.505/2401.250
QB50P2 24 Jul 12:06:41 12:10:45 44° 261° (W) 12:14:51 145.880/145.840
POLYITAN 1 24 Jul 12:09:20 12:13:23 43° 261° (W) 12:17:30 437.675
UKube-1 24 Jul 12:18:00 12:21:15 20° 95° (E) 12:24:28 .
HUMSAT D 24 Jul 12:24:44 12:27:35 18° 294° (WNW) 12:30:23 437.325/437.525
AUBIESAT-1 24 Jul 12:30:33 12:33:34 18° 301° (WNW) 12:36:36 437.475
VELOX 1 24 Jul 12:37:22 12:41:46 59° 101° (E) 12:46:09 145.980
CUBEBUG 1 24 Jul 12:47:20 12:51:46 90° 214° (SW) 12:56:10 437.445
SPROUT 24 Jul 12:57:08 13:01:19 46° 99° (E) 13:05:27 437.525
NANOSAT C BR1 24 Jul 12:57:45 13:00:04 14° 268° (W) 13:02:24 145.865
Oscar 19 24 Jul 13:02:38 13:07:28 44° 70° (ENE) 13:12:19 437.125/150
Cosmos 2504 24 Jul 13:03:54 13:11:47 35° 289° (WNW) 13:19:42 435.465 / 435.565
DUCHIFAT 1 24 Jul 13:04:01 13:06:02 13° 269° (W) 13:08:03 145.980
YUBILEINY 24 Jul 13:15:56 13:18:11 11° 305° (NW) 13:20:26 435.215
50 SAT 24 Jul 13:18:06 13:21:23 33° 288° (WNW) 13:24:38 437.505
AO-7 24 Jul 13:19:50 13:23:18 13° 44° (NE) 13:26:46 29.400- 29.500
AISAT 24 Jul 13:22:00 13:26:13 42° 289° (WNW) 13:30:25 437.250
BUGSAT 1 24 Jul 13:32:09 13:34:13 14° 269° (W) 13:36:17 437.445
DX 1 24 Jul 13:33:20 13:37:30 45° 288° (WNW) 13:41:40 434.975-435.025
AIST 1 24 Jul 13:35:13 13:39:05 36° 92° (E) 13:42:59
ESTCUBE 1 24 Jul 13:44:30 13:47:21 17° 296° (WNW) 13:50:12 437.505/2401.250
JAS-2 24 Jul 13:45:51 13:50:56 26° 264° (W) 13:55:38 435.910
UKube-1 24 Jul 13:53:26 13:57:21 34° 290° (WNW) 14:01:17 .
Gurwin Techsat 1B 24 Jul 13:56:19 14:01:33 64° 73° (ENE) 14:06:50 435.225
RS-15 24 Jul 13:56:55 14:06:53 27° 23° (NNE) 14:16:53 29.354- 29.394
TISAT 1 24 Jul 14:04:30 14:08:44 60° 101° (ESE) 14:12:55 437.305
AO-85 24 Jul 14:07:59 14:12:41 31° 113° (ESE) 14:17:14 145.980
SWISSCUBE 24 Jul 14:09:27 14:11:57 14° 91° (E) 14:14:27 437.505
VELOX 1 24 Jul 14:15:28 14:17:43 14° 297° (WNW) 14:19:59 145.980
Cosmos 2499 24 Jul 14:25:36 14:28:24 12° 74° (ENE) 14:31:12 435.465 / 435.565
ITAMSAT 1 24 Jul 14:29:44 14:34:41 44° 70° (ENE) 14:39:38 435.822/435.867
BEESAT 24 Jul 14:30:18 14:33:55 21° 94° (E) 14:37:31 436.000
SPROUT 24 Jul 14:34:11 14:36:52 16° 295° (WNW) 14:39:33 437.525
CUSAT 1 24 Jul 14:43:05 14:45:12 18° 77° (ENE) 14:47:35 437.405
Oscar 19 24 Jul 14:43:07 14:46:58 21° 266° (W) 14:50:51 437.125/150
ITUPSAT 1 24 Jul 14:50:44 14:55:03 33° 97° (E) 14:59:20 437.325
AO-7 24 Jul 15:06:11 15:14:17 57° 65° (ENE) 15:22:25 29.400- 29.500
AIST 1 24 Jul 15:13:56 15:16:49 18° 288° (WNW) 15:19:43
GONETS M04 24 Jul 15:18:23 15:26:19 42° 87° (E) 15:34:17
Gurwin Techsat 1B 24 Jul 15:38:48 15:41:56 16° 269° (W) 15:45:05 435.225
MOZHAYETS 4 24 Jul 15:40:16 15:42:36 14° 91° (E) 15:44:55
TISAT 1 24 Jul 15:42:00 15:43:51 13° 297° (WNW) 15:45:41 437.305
SWISSCUBE 24 Jul 15:45:26 15:50:08 59° 287° (WNW) 15:54:47 437.505
AO-85 24 Jul 15:48:03 15:53:05 40° 309° (NW) 15:57:54 145.980
HORYU 2 24 Jul 15:51:13 15:53:45 15° 63° (ENE) 15:56:18 437.375
BEESAT 24 Jul 16:07:23 16:11:50 39° 290° (WNW) 16:16:15 436.000
RS-15 24 Jul 16:10:05 16:22:26 66° 52° (NE) 16:34:34 29.354- 29.394
ITAMSAT 1 24 Jul 16:10:17 16:14:19 22° 266° (W) 16:18:22 435.822/435.867
Cosmos 2499 24 Jul 16:11:05 16:19:50 66° 92° (E) 16:28:29 435.465 / 435.565
STARS 24 Jul 16:16:00 16:18:34 15° 92° (E) 16:21:06 437.465
DANDE 24 Jul 16:17:53 16:20:27 64° 262° (W) 16:23:10 436.750
CUSAT 1 24 Jul 16:25:37 16:27:04 13° 265° (W) 16:28:39 437.405
ITUPSAT 1 24 Jul 16:28:48 16:32:44 26° 293° (WNW) 16:36:37 437.325
BRITE-PL 24 Jul 16:44:21 16:44:56 10° 62° (ENE) 16:45:31 437.365/2234.400
AO-7 24 Jul 17:00:06 17:07:21 32° 263° (W) 17:14:40 29.400- 29.500
Cubesat XI-IV 24 Jul 17:02:42 17:05:52 16° 61° (ENE) 17:09:03 437.490
KKS-1 24 Jul 17:03:35 17:08:05 81° 284° (WNW) 17:12:34 437.445
SO-50 24 Jul 17:05:37 17:09:36 27° 46° (NE) 17:13:28 436.795
GONETS M04 24 Jul 17:14:59 17:23:04 42° 287° (WNW) 17:31:15
MOZHAYETS 4 24 Jul 17:15:37 17:20:07 56° 287° (WNW) 17:24:34
HORYU 2 24 Jul 17:25:26 17:29:50 55° 259° (W) 17:34:16 437.375
CUTE-I 24 Jul 17:25:56 17:30:18 26° 65° (ENE) 17:34:38 437.470
LilacSat-2 24 Jul 17:30:30 17:33:12 18° 67° (ENE) 17:35:55 437.200
NOAA 18 24 Jul 17:35:32 17:40:24 33° 66° (ENE) 17:45:19 137.9125
STARS 24 Jul 17:50:53 17:55:12 49° 287° (WNW) 17:59:28 437.465
NOAA 15 24 Jul 17:55:13 18:00:23 62° 72° (ENE) 18:05:34 137.62
GOMX 1 24 Jul 17:58:53 18:02:28 29° 70° (ENE) 18:06:11 467.674
HO-68 24 Jul 18:02:18 18:05:12 13° 50° (NE) 18:08:06 435.675
Cosmos 2499 24 Jul 18:06:11 18:13:33 29° 292° (WNW) 18:20:52 435.465 / 435.565
DOVE 4 24 Jul 18:08:06 18:10:56 18° 65° (ENE) 18:13:52 437.250
BRITE-PL 24 Jul 18:18:44 18:22:53 67° 259° (W) 18:27:02 437.365/2234.400
CUBESAT XI-V 24 Jul 18:26:32 18:31:09 83° 284° (WNW) 18:35:45 437.345
